Zurück zum Katalog

FENGYUN 1C DEB

AktivLEO
NORAD 36229·DEBRIS·🇨🇳 China

Gestartet May 10, 1999 von Taiyuan Satellite Launch Center

Loading…

Nächste Überflüge (nächste 24 Stunden)

TLE

AlterndSource: Space-Track

Epoche: Sep 11, 2026, 00:14 UTC

1 36229U 99025DVE 26254.01003815  .00001815  00000-0  10408-2 0  9994
2 36229 100.9131 175.3121 0101546 127.8578 233.1825 14.08554025670870

Verfolge FENGYUN 1C DEB in Echtzeit mit AllMySat

Download on the App Store